Weather History for Bishop, CA

Change the Weather History Date:

Wednesday, August 21, 2013

  Actual Average Record
Temperature  
Mean Temperature 77 °F 74 °F  
Max Temperature 94 °F 96 °F 104 °F (1950)
Min Temperature 60 °F 53 °F 41 °F (1968)
Degree Days  
Heating Degree Days 0 0  
Month to date heating degree days 0 0  
Since 1 June heating degree days 0 20  
Since 1 July heating degree days 0 1  
Cooling Degree Days 12 9  
Month to date cooling degree days 195 230  
Year to date cooling degree days 1066 894  
Since 1 June cooling degree days 980 826  
Growing Degree Days 28 (Base 50)    
Moisture  
Dew Point 44 °F    
Average Humidity 35    
Maximum Humidity 52    
Minimum Humidity 18    
Precipitation  
Precipitation 0.00 in 0.01 in 0.42 in (1984)
Month to date precipitation 0.16 0.09  
Year to date precipitation 1.11 3.33  
Snow  
Snow 0.00 in 0.00 in - ()
Month to date snowfall 0.0 0.0  
Since 1 June snowfall 0.0 0.0  
Since 1 July snowfall 0.0 0.0  
Snow Depth 0.00 in    
Sea Level Pressure  
Sea Level Pressure 29.92 in    
Wind  
Wind Speed 7 mph (WNW)    
Max Wind Speed 26 mph    
Max Gust Speed 36 mph    
Visibility 10 miles    
Events Thunderstorm    
T = Trace of Precipitation, MM = Missing Value Source: NWS Daily Summary

Daily Weather History Graph

Daily Weather History Graph

Search for Another Location

Airport:

Trip Planner

Search our weather history database for the weather conditions in past years. The results will help you decide how hot, cold, wet, or windy it might be!

Date:

Astronomy

Aug. 21, 2013 Rise Set
Actual Time 6:14 AM PDT 7:37 PM PDT
Civil Twilight 5:47 AM PDT 8:04 PM PDT
Nautical Twilight 5:14 AM PDT 8:37 PM PDT
Astronomical Twilight 4:40 AM PDT 9:11 PM PDT
Moon 7:51 PM PDT (8/21) 6:58 AM PDT (8/21)
Length of Visible Light 14h 16m
Length of Day
13h 22m
Full, 99% of the Moon is Illuminated
Aug 21
Full
Aug 28
Last Quarter
Sep 5
New
Sep 12
First Quarter
Sep 19
Full

Hourly Weather History & Observations

Time (PDT) Temp. Dew Point Humidity Pressure Visibility Wind Dir Wind Speed Gust Speed Precip Events Conditions
12:56 AM 66.9 °F 44.1 °F 44% 29.91 in 10.0 mi North 3.5 mph - N/A   Clear
1:56 AM 66.9 °F 45.0 °F 45% 29.92 in 10.0 mi West 4.6 mph - N/A   Clear
2:56 AM 64.9 °F 45.0 °F 48% 29.92 in 10.0 mi NNE 8.1 mph - N/A   Clear
3:56 AM 66.0 °F 45.0 °F 47% 29.93 in 10.0 mi NW 4.6 mph - N/A   Clear
4:56 AM 66.9 °F 46.0 °F 47% 29.94 in 10.0 mi West 3.5 mph - N/A   Mostly Cloudy
5:56 AM 64.0 °F 45.0 °F 50% 29.98 in 10.0 mi ESE 8.1 mph - N/A   Scattered Clouds
6:56 AM 66.9 °F 46.0 °F 47% 29.96 in 10.0 mi WNW 4.6 mph - N/A   Scattered Clouds
7:56 AM 72.0 °F 48.0 °F 43% 29.96 in 10.0 mi North 5.8 mph - N/A   Partly Cloudy
8:56 AM 78.1 °F 46.0 °F 32% 29.96 in 10.0 mi Variable 3.5 mph - N/A   Clear
9:56 AM 82.0 °F 46.0 °F 28% 29.95 in 10.0 mi North 3.5 mph - N/A   Clear
10:56 AM 84.0 °F 46.0 °F 26% 29.94 in 10.0 mi SW 4.6 mph - N/A   Clear
11:56 AM 89.1 °F 44.1 °F 21% 29.91 in 10.0 mi South 12.7 mph 19.6 mph N/A   Clear
12:56 PM 88.0 °F 44.1 °F 22% 29.90 in 10.0 mi South 13.8 mph - N/A   Mostly Cloudy
1:56 PM 91.9 °F 42.1 °F 18% 29.88 in 10.0 mi SSE 11.5 mph 19.6 mph N/A   Clear
2:07 PM 89.6 °F 42.8 °F 20% 30.03 in 10.0 mi South 13.8 mph 21.9 mph N/A Thunderstorm Partly Cloudy
2:22 PM 93.2 °F 41.0 °F 16% 30.02 in 10.0 mi South 21.9 mph 31.1 mph N/A   Partly Cloudy
2:56 PM 90.0 °F 41.0 °F 18% 29.86 in 10.0 mi South 16.1 mph 27.6 mph N/A   Partly Cloudy
3:56 PM 87.1 °F 39.0 °F 18% 29.86 in 10.0 mi South 11.5 mph - N/A   Partly Cloudy
4:56 PM 86.0 °F 43.0 °F 22% 29.86 in 10.0 mi NW 4.6 mph - N/A   Clear
5:56 PM 84.9 °F 43.0 °F 23% 29.86 in 10.0 mi North 13.8 mph - N/A   Clear
6:56 PM 84.9 °F 42.1 °F 22% 29.86 in 10.0 mi North 3.5 mph - N/A   Partly Cloudy
7:56 PM 79.0 °F 44.1 °F 29% 29.86 in 10.0 mi North 4.6 mph - N/A   Clear
8:56 PM 73.9 °F 46.9 °F 38% 29.88 in 10.0 mi WNW 6.9 mph - N/A   Clear
9:56 PM 69.1 °F 46.0 °F 44% 29.89 in 10.0 mi Calm Calm - N/A   Clear
10:56 PM 64.0 °F 45.0 °F 50% 29.91 in 10.0 mi Calm Calm - N/A   Clear
11:56 PM 63.0 °F 45.0 °F 52% 29.91 in 10.0 mi NNW 3.5 mph - N/A   Clear